Weather History for KRTN - September, 2013

Change the Weather History Date:

Thursday, September 12, 2013

  Actual Average (KTAD) Record (KTAD)
Temperature  
Mean Temperature 60 °F 66 °F  
Max Temperature 66 °F 81 °F 95 °F (1956)
Min Temperature 57 °F 51 °F 36 °F (1989)
Degree Days  
Heating Degree Days 4 2  
Month to date heating degree days 17  
Since 1 July heating degree days 27  
Cooling Degree Days 0 3  
Month to date cooling degree days 48  
Year to date cooling degree days 690  
Growing Degree Days 10 (Base 50)    
Moisture  
Dew Point 57 °F    
Average Humidity 90    
Maximum Humidity 100    
Minimum Humidity 73    
Precipitation  
Precipitation 1.36 in 0.04 in 0.90 in (1952)
Month to date precipitation 0.59  
Year to date precipitation 11.05  
Sea Level Pressure  
Sea Level Pressure 30.22 in    
Wind  
Wind Speed 4 mph (South)    
Max Wind Speed 16 mph    
Max Gust Speed 22 mph    
Visibility 7 miles    
Events Rain    
T = Trace of Precipitation, MM = Missing Value Source: NWS Daily Summary

Daily Weather History Graph

Daily Weather History Graph

Search for Another Location

Airport or City:

Trip Planner

Search our weather history database for the weather conditions in past years. The results will help you decide how hot, cold, wet, or windy it might be!

Date:

Astronomy

Sep. 12, 2013 Rise Set
Actual Time 6:38 AM MDT 7:09 PM MDT
Civil Twilight 6:12 AM MDT 7:35 PM MDT
Nautical Twilight 5:41 AM MDT 8:06 PM MDT
Astronomical Twilight 5:10 AM MDT 8:37 PM MDT
Moon 1:57 PM MDT (9/12) No Moon Set
Length of Visible Light 13h 23m
Length of Day
12h 31m
Waxing Crescent, 51% of the Moon is Illuminated
Sep 12
Waxing Crescent
Sep 19
Full
Sep 26
Last Quarter
Oct 4
New
Oct 11
First Quarter

Hourly Weather History & Observations

Time (MDT) Temp. Dew Point Humidity Pressure Visibility Wind Dir Wind Speed Gust Speed Precip Events Conditions
12:10 AM 59.0 °F 57.2 °F 94% 30.30 in 10.0 mi WSW 3.5 mph - N/A   Overcast
12:43 AM 57.2 °F 55.4 °F 94% 30.29 in 10.0 mi Calm Calm - N/A   Scattered Clouds
12:53 AM 57.0 °F 55.9 °F 96% 30.09 in 10.0 mi Calm Calm - N/A   Clear
1:53 AM 57.0 °F 55.9 °F 96% 30.08 in 10.0 mi NNE 3.5 mph - N/A   Mostly Cloudy
2:15 AM 57.2 °F 55.4 °F 94% 30.29 in 2.0 mi NE 3.5 mph - N/A   Overcast
2:19 AM 57.2 °F 55.4 °F 94% 30.29 in 1.5 mi NE 3.5 mph - N/A   Overcast
2:25 AM 57.2 °F 57.2 °F 100% 30.29 in 3.0 mi NNE 3.5 mph - N/A   Overcast
2:37 AM 57.2 °F 55.4 °F 94% 30.29 in 1.8 mi NE 3.5 mph - N/A   Overcast
2:53 AM 57.0 °F 55.9 °F 96% 30.09 in 1.8 mi NNE 4.6 mph - N/A   Overcast
2:55 AM 57.2 °F 55.4 °F 94% 30.29 in 4.0 mi NNE 3.5 mph - N/A   Overcast
3:25 AM 57.2 °F 55.4 °F 94% 30.29 in 10.0 mi NNW 3.5 mph - N/A   Overcast
3:53 AM 57.9 °F 55.9 °F 93% 30.08 in 10.0 mi NNW 3.5 mph - N/A   Overcast
4:27 AM 57.2 °F 55.4 °F 94% 30.28 in 10.0 mi NW 3.5 mph - N/A   Overcast
4:53 AM 59.0 °F 57.0 °F 93% 30.08 in 10.0 mi Calm Calm - N/A   Overcast
5:53 AM 59.0 °F 55.9 °F 90% 30.09 in 10.0 mi Calm Calm - N/A   Overcast
6:30 AM 59.0 °F 57.2 °F 94% 30.30 in 10.0 mi Calm Calm - N/A   Overcast
6:53 AM 59.0 °F 57.0 °F 93% 30.11 in 10.0 mi Calm Calm - N/A   Mostly Cloudy
7:07 AM 59.0 °F 57.2 °F 94% 30.32 in 10.0 mi Calm Calm - N/A   Overcast
7:53 AM 60.1 °F 57.0 °F 90% 30.12 in 10.0 mi Calm Calm - N/A   Overcast
8:13 AM 60.8 °F 57.2 °F 88% 30.33 in 10.0 mi Calm Calm - N/A   Overcast
8:42 AM 60.8 °F 57.2 °F 88% 30.33 in 10.0 mi Calm Calm - N/A   Overcast
8:53 AM 61.0 °F 57.0 °F 87% 30.13 in 10.0 mi Calm Calm - N/A   Overcast
9:26 AM 60.8 °F 55.4 °F 82% 30.33 in 10.0 mi North 4.6 mph - N/A   Overcast
9:53 AM 62.1 °F 55.9 °F 80% 30.13 in 10.0 mi Calm Calm - 0.00 in   Overcast
10:34 AM 62.6 °F 55.4 °F 77% 30.34 in 10.0 mi Calm Calm - 0.00 in Rain Light Rain
10:53 AM 62.1 °F 55.9 °F 80% 30.13 in 8.0 mi Calm Calm - 0.02 in Rain Light Rain
11:53 AM 64.0 °F 55.9 °F 75% 30.12 in 10.0 mi Calm Calm - 0.00 in   Overcast
12:23 PM 64.4 °F 55.4 °F 73% 30.32 in 10.0 mi Calm Calm - N/A   Overcast
12:37 PM 64.4 °F 55.4 °F 73% 30.32 in 10.0 mi Calm Calm - 0.00 in Rain Light Rain
12:44 PM 64.4 °F 57.2 °F 77% 30.32 in 10.0 mi South 4.6 mph - 0.00 in Rain Light Rain
12:53 PM 64.0 °F 57.0 °F 78% 30.11 in 8.0 mi South 5.8 mph - 0.00 in Rain Light Rain
1:03 PM 62.6 °F 59.0 °F 88% 30.32 in 6.0 mi SE 9.2 mph - 0.00 in Rain Light Rain
1:31 PM 62.6 °F 59.0 °F 88% 30.31 in 9.0 mi SE 3.5 mph - 0.02 in Rain Light Rain
1:53 PM 63.0 °F 57.9 °F 84% 30.10 in 10.0 mi SSE 3.5 mph - 0.02 in   Overcast
2:53 PM 64.9 °F 57.0 °F 75% 30.07 in 10.0 mi Calm Calm - 0.00 in   Overcast
3:32 PM 62.6 °F 59.0 °F 88% 30.27 in 1.8 mi SSE 10.4 mph - 0.02 in Rain Heavy Rain
3:40 PM 60.8 °F 57.2 °F 88% 30.28 in 1.2 mi SSE 5.8 mph - 0.08 in Rain Heavy Rain
3:45 PM 60.8 °F 57.2 °F 88% 30.27 in 1.8 mi SSE 4.6 mph - 0.10 in Rain Rain
3:48 PM 60.8 °F 59.0 °F 94% 30.27 in 3.0 mi SSE 4.6 mph - 0.10 in Rain Light Rain
3:53 PM 60.1 °F 59.0 °F 96% 30.08 in 7.0 mi South 4.6 mph - 0.10 in Rain Light Rain
4:53 PM 62.1 °F 57.9 °F 86% 30.05 in 9.0 mi Calm Calm - 0.02 in Rain Light Rain
5:53 PM 62.1 °F 59.0 °F 90% 30.06 in 10.0 mi South 5.8 mph - 0.01 in Rain Light Rain
6:07 PM 60.8 °F 57.2 °F 88% 30.27 in 2.0 mi SSE 8.1 mph 21.9 mph 0.04 in Rain Light Rain
6:10 PM 60.8 °F 57.2 °F 88% 30.27 in 3.0 mi SSE 5.8 mph - 0.04 in Rain Light Rain
6:24 PM 60.8 °F 57.2 °F 88% 30.27 in 2.5 mi Variable 3.5 mph - 0.08 in Rain Rain
6:33 PM 60.8 °F 57.2 °F 88% 30.27 in 1.2 mi ESE 9.2 mph - 0.16 in Rain Heavy Rain
6:40 PM 60.8 °F 57.2 °F 88% 30.27 in 2.0 mi SE 16.1 mph 20.7 mph 0.20 in Rain Rain
6:53 PM 60.1 °F 59.0 °F 96% 30.07 in 1.8 mi South 13.8 mph - 0.26 in Rain Heavy Rain
6:59 PM 59.0 °F 57.2 °F 94% 30.27 in 2.0 mi SSE 11.5 mph - 0.03 in Rain Rain
7:09 PM 59.0 °F 57.2 °F 94% 30.27 in 4.0 mi SSE 6.9 mph - 0.05 in Rain Rain
7:20 PM 60.8 °F 59.0 °F 94% 30.27 in 5.0 mi SSE 5.8 mph - 0.07 in Rain Light Rain
7:36 PM 60.8 °F 59.0 °F 94% 30.27 in 4.0 mi SSE 12.7 mph - 0.09 in Rain Light Rain
7:53 PM 60.1 °F 57.9 °F 93% 30.07 in 2.5 mi SSE 15.0 mph - 0.14 in Rain Heavy Rain
8:00 PM 60.8 °F 57.2 °F 88% 30.28 in 1.8 mi SSW 13.8 mph - 0.08 in Rain Heavy Rain
8:05 PM 59.0 °F 57.2 °F 94% 30.29 in 2.0 mi SW 11.5 mph - 0.13 in Rain Heavy Rain
8:11 PM 59.0 °F 57.2 °F 94% 30.29 in 1.5 mi SSW 8.1 mph - 0.18 in Rain Heavy Rain
8:26 PM 59.0 °F 57.2 °F 94% 30.29 in 2.0 mi SSW 11.5 mph - 0.46 in Rain Rain
8:34 PM 57.2 °F 57.2 °F 100% 30.29 in 5.0 mi SSW 11.5 mph - 0.47 in Rain Rain
8:45 PM 57.2 °F 57.2 °F 100% 30.29 in 7.0 mi SW 9.2 mph - 0.48 in Rain Light Rain
8:53 PM 59.0 °F 57.0 °F 93% 30.09 in 10.0 mi SSW 9.2 mph - 0.49 in Rain Light Rain
9:03 PM 59.0 °F 57.2 °F 94% 30.29 in 1.8 mi SSW 9.2 mph - 0.03 in Rain Heavy Rain
9:14 PM 59.0 °F 57.2 °F 94% 30.29 in 2.0 mi South 8.1 mph - 0.15 in Rain Heavy Rain
9:27 PM 59.0 °F 57.2 °F 94% 30.29 in 7.0 mi SW 11.5 mph - 0.21 in Rain Light Rain
9:53 PM 59.0 °F 57.9 °F 96% 30.09 in 5.0 mi SW 10.4 mph - 0.29 in Rain Light Rain
10:11 PM 57.2 °F 57.2 °F 100% 30.29 in 10.0 mi WSW 9.2 mph - 0.01 in Rain Light Rain
10:53 PM 57.9 °F 57.0 °F 97% 30.08 in 9.0 mi WSW 5.8 mph - 0.01 in Rain Light Rain
11:05 PM 57.2 °F 57.2 °F 100% 30.28 in 10.0 mi WSW 5.8 mph - 0.00 in   Overcast
11:36 PM 59.0 °F 57.2 °F 94% 30.28 in 10.0 mi WSW 6.9 mph - 0.00 in   Overcast
11:53 PM 59.0 °F 57.0 °F 93% 30.06 in 10.0 mi WSW 5.8 mph - 0.00 in   Overcast